Preview of NWS' New Version of Forecast
This preview is not operational and should not be used for support decisions.

Regional Weather Roundup (RWR)

Issued by National Weather Service (NWS)

                            
000
ASUS42 KTBW 191917
RWRFL 
FLORIDA REGIONAL WEATHER ROUNDUP
NATIONAL WEATHER SERVICE TAMPA BAY RUSKIN FL
300 PM EDT TUE MAR 19 2019

NOTE: "FAIR" INDICATES FEW OR NO CLOUDS BELOW 12,000 FEET WITH NO
SIGNIFICANT WEATHER AND/OR OBSTRUCTIONS TO VISIBILITY.

FLZ001>010-012>015-112-114-115-192000-
PANHANDLE FLORIDA
  
CITY           SKY/WX    TMP DP  RH WIND       PRES   REMARKS
PENSACOLA      FAIR      65  26  23 VRB6      30.22F                  
PENSACOLA NAS  FAIR      63  28  26 E8        30.23F                  
MILTON NAS     FAIR      63  27  25 NE9       30.23F                  
CRESTVIEW      FAIR      65  25  22 VRB6      30.25F                  
DUKE FIELD     PTSUNNY   64  27  25 E7        30.23F                  
VALPARAISO     PTSUNNY   64  27  25 NE12G17   30.22F                  
MARY ESTHER    PTSUNNY   64  33  31 NE15      30.21F                  
PANAMA CITY    FAIR      64  34  32 N7        30.21F                  
APALACHICOLA   FAIR      65  39  38 VRB5      30.19F                  

STATION/POSITION SKY/WX   TEMP    WIND        PRES    WAVE   SWELL
                          AIR SEA DIR/SP/G            HT/PER HT/PER
                          (F)     (DEG/KT/KT) (MB)    (FT/S) (FT/S)
30.1N   87.6W                                 1024.6    3/ 6
29.2N   88.2W                      20/ 14/ 21 1024.5F   5/ 7   2/14
PANAMA CITY BEAC           62 64   50/  7/ 10 1023.5F
TOWER C                    60      50/ 15/ 16 1022.1F

$$
FLZ011-016>038-118-127-128-134-139-239-192000-
NORTH FLORIDA
  
CITY           SKY/WX    TMP DP  RH WIND       PRES   REMARKS
MARIANNA       FAIR      64  37  36 E9        30.23F                  
TALLAHASSEE    CLOUDY    65  43  44 VRB3      30.20F                  
PERRY          FAIR      68  49  50 NE14      30.18F                  
LIVE OAK       CLOUDY    64  50  59 NE8G17    30.19F                  
CROSS CITY     PTSUNNY   70  53  54 NE16      30.15F                  
LAKE CITY      CLOUDY    61  50  67 NE10G17   30.19F                  
GAINESVILLE    CLOUDY    67  53  61 NE18      30.19F                  
WILLISTON        N/A    N/A N/A N/A MISG        N/A                   
PALATKA        CLOUDY    64  54  68 NE14G24   30.16F                  
MAYPORT NAS    PTSUNNY   62  55  77 NE26G37   30.19F                  
JACKSONVILLE   CLOUDY    62  50  64 NE25G32   30.20F                  
JAX NAS        PTSUNNY   63  51  65 NE21G35   30.20F                  
JAX CECIL      PTSUNNY  N/A N/A N/A NE18G30   30.19F                  
FERNANDINA BEA CLOUDY    60  51  73 NE22G31   30.21F                  
ST AUGUSTINE   PTSUNNY   65  56  72 NE22G31   30.16F                  
PALM COAST     PTSUNNY   64  57  77 N13G20    30.14F                  

STATION/POSITION SKY/WX   TEMP    WIND        PRES    WAVE   SWELL
                          AIR SEA DIR/SP/G            HT/PER HT/PER
                          (F)     (DEG/KT/KT) (MB)    (FT/S) (FT/S)
SHELL POINT      NOT AVBL
KEATON BEACH               67      40/  8/ 11 1021.3F
CEDAR KEY                  66      60/ 11/ 12 1020.4F
FERNANDINA                         10/ 12/ 26   N/A
30.7N   81.3W                 62                N/A     8/ 6   2/11
MAYPORT                    60 63   30/ 23/ 28 1022.7F
31.4N   80.9W              56 62   40/ 25/ 31 1023.6F   8/ 8
ST AUGUSTINE               64 63   20/ 25/ 29 1020.9F

$$
FLZ040-043>046-052-053-057-058-063-144-192000-
INTERIOR CENTRAL FLORIDA
  
CITY           SKY/WX    TMP DP  RH WIND       PRES   REMARKS
OCALA          PTSUNNY   69  56  62 NE13G21   30.12F                  
LEESBURG       FAIR      66  55  67 NE9       30.13F                  
SANFORD        CLOUDY    65  60  84 NW6       30.10F                  
ORLANDO EXEC   CLOUDY    66  59  78 NE7       30.11F                  
ORLANDO INTL   LGT RAIN  65  58  78 NE7       30.12F                  
KISSIMMEE      LGT RAIN  64  59  83 NE8       30.11F                  
WINTER HAVEN   CLOUDY    64  60  87 NE8       30.11F                  
LAKELAND       CLOUDY    59  54  82 NE12      30.12F                  
BARTOW         CLOUDY    63  59  88 NE7       30.10F                  
SEBRING        CLOUDY    64  60  88 E12       30.10F                  
OKEECHOBEE       N/A     63  59  88 NE7       30.07F                  

$$
FLZ041-047-054-059-064-141-147-192000-
EAST CENTRAL FLORIDA
  
CITY           SKY/WX    TMP DP  RH WIND       PRES   REMARKS
ORMOND BEACH   CLOUDY    64  59  82 N12G23    30.13F                  
DAYTONA BEACH  PTSUNNY   69  58  67 E7        30.12F                  
DELAND         FAIR      68  57  68 E10       30.11F                  
NEW SMYRNA BEA MOSUNNY   68  57  68 E6        30.12F                  
TITUSVILLE     CLOUDY    68  59  73 E6        30.10F FOG              
PATRICK AFB    SUNNY     66  63  88 NE12      30.08F                  
MELBOURNE      CLOUDY    67  59  75 NE17      30.08F                  
VERO BEACH     CLOUDY    66  58  75 NE10G21   30.07F                  
FT PIERCE      CLOUDY    66  59  78 NE8G18    30.06S                  
STUART         RAIN      66  61  82 NE16G24   30.06F                  

STATION/POSITION SKY/WX   TEMP    WIND        PRES    WAVE   SWELL
                          AIR SEA DIR/SP/G            HT/PER HT/PER
                          (F)     (DEG/KT/KT) (MB)    (FT/S) (FT/S)
28.5N   80.2W              69      60/ 16/ 19 1018.8
28.9N   78.5W              66 74   70/ 16/ 19 1019.2F   6/ 8   3/ 8
TRIDENT PIER               66 68   40/  8/ 13 1019.9F
28.4N   80.5W                 67                N/A     3/ 8
27.5N   80.2W                 69                N/A     6/ 8   2/12

$$
FLZ050-056-061-142-242-148-248-149-249-151-251-155-255-
160-260-192000-
WEST CENTRAL FLORIDA
  
CITY           SKY/WX    TMP DP  RH WIND       PRES   REMARKS
CRYSTAL RIVER  CLOUDY    70  52  52 E14       30.12F                  
INVERNESS      FAIR      66  57  72 E7        30.13F                  
BROOKSVILLE    LGT RAIN  63  55  75 NE8       30.12F                  
CLEARWATER AIR CLOUDY    59  52  77 NE6       30.12F                  
ST PETE CLEARW LGT RAIN  61  53  75 NE5       30.12F                  
TAMPA INTL     CLOUDY    63  54  72 NE6       30.13F                  
TAMPA EXEC     CLOUDY    61  55  82 NE3       30.13F                  
PLANT CITY     CLOUDY    63  57  82 NE8       30.14F                  
PETER O KNIGHT CLOUDY    63  57  82 NE9       30.13S                  
ST PETERSBURG  CLOUDY    64  57  78 E14G20    30.10F                  
SARASOTA       CLOUDY    64  58  80 NE10      30.08F                  
VENICE         PTSUNNY   64  61  88 NE12      30.09F                  

STATION/POSITION SKY/WX   TEMP    WIND        PRES    WAVE   SWELL
                          AIR SEA DIR/SP/G            HT/PER HT/PER
                          (F)     (DEG/KT/KT) (MB)    (FT/S) (FT/S)
27.3N   84.2W                 72                N/A     6/ 6
CLEARWATER BEACH           60 70   40/  6/  9 1020.3F
MIDDLE TAMPA BAY           61      60/ 10/ 12 1020.2F
VENICE                     63 72   50/ 10/ 14 1018.3F

$$
FLZ066-069-070-075>078-162-262-165-265-192000-
SOUTHWEST FLORIDA AND KEYS
  
CITY           SKY/WX    TMP DP  RH WIND       PRES   REMARKS
PUNTA GORDA    CLOUDY    64  59  83 NE13      30.09F                  
FT MYERS       CLOUDY    65  60  84 NE14      30.05F                  
SOUTHWEST INTL LGT RAIN  63  61  93 NE12      30.06S                  
NAPLES         CLOUDY   N/A N/A N/A NE17G23   30.02F                  
MARCO ISLAND   CLOUDY    69  63  81 NE15G23   30.02F                  
IMMOKALEE      CLOUDY    64  63  94 NE12      30.03F                  
MARATHON       FAIR      76  65  68 NE23G29   29.96F                  
KEY WEST NAS   CLOUDY    73  65  75 NE16      29.99S                  
KEY WEST INTL  PTSUNNY   73  66  78 NE12G22   29.99S                  

STATION/POSITION SKY/WX   TEMP    WIND        PRES    WAVE   SWELL
                          AIR SEA DIR/SP/G            HT/PER HT/PER
                          (F)     (DEG/KT/KT) (MB)    (FT/S) (FT/S)
NAPLES                     66 74   60/  8/ 15 1016.5F
26.0N   85.6W              69 79   50/ 21/ 27 1017.5
DRY TORTUGAS               71      80/ 18/ 20 1015.5F
SAND KEY                   71                 1015.5R
SOMBRERO KEY               71                 1013.8F
MOLASSES REEF              70 78   50/ 27/ 31 1013.9F

$$
FLZ067-068-071>074-168-172>174-192000-
SOUTHEAST FLORIDA 
  
CITY           SKY/WX    TMP DP  RH WIND       PRES   REMARKS
W PALM BEACH   LGT RAIN  67  62  84 NE15G24   30.03F                  
BOCA RATON     LGT RAIN  68  64  88 E20G30    29.99F                  
FT LAUDER-EXEC LGT RAIN  68  68 100 NE15G24   29.98F                  
FT LAUDERDALE  LGT RAIN  69  64  84 NE20G25   29.97F                  
POMPANO BEACH  LGT RAIN  69  64  84 NE23G30   29.99F                  
PEMBROKE PINES LGT RAIN  67  65  93 NE14G22   30.00F                  
OPA LOCKA      LGT RAIN  68  65  90 NE12      29.99F FOG              
MIAMI          LGT RAIN  68  66  93 E10G22    29.98F                  
WEST KENDALL   LGT RAIN  69  66  90 E14       29.97F                  
HOMESTEAD      NOT AVBL                                               

STATION/POSITION SKY/WX   TEMP    WIND        PRES    WAVE   SWELL
                          AIR SEA DIR/SP/G            HT/PER HT/PER
                          (F)     (DEG/KT/KT) (MB)    (FT/S) (FT/S)
PORT EVERGLADES            70      60/ 21/ 26 1015.5F
VIRGINIA KEY               68 77   20/ 10/ 15 1014.7F
LAKE WORTH                 65 75   60/ 23/ 30 1017.4F
FOWEY ROCKS                70 76   30/ 24/ 26 1015.7F
SETTLEMENT POINT           67      40/ 23/ 26 1017.1F

$$